• în România
  • Lista ţărilor
  • Pe 7 zile
  • Temperatura apei
  • Hartă satelitară
  • Meteo pe hartă
  • Widget-uri
  • user-avatar
    Intrare

    Meteo pe oră la Lvovo

    Astăzi, 25 Septembrie, Marţi

    Timp Temperatura Precipitaţii Vânt Presiune Umiditate
    00:00 +10°C° 0.3 mm 9 m/s 733 mmHg 86%
    01:00 +10°C° 0.1 mm 8 m/s 733 mmHg 85%
    02:00 +9°C° 0.1 mm 8 m/s 733 mmHg 85%
    03:00 +9°C° 0 mm 6 m/s 732 mmHg 84%
    04:00 +8°C° 0 mm 6 m/s 732 mmHg 84%
    05:00 +8°C° 0 mm 6 m/s 733 mmHg 83%
    06:00 +6°C° 0 mm 7 m/s 733 mmHg 82%
    07:00 +8°C° 0 mm 7 m/s 733 mmHg 81%
    08:00 +8°C° 0 mm 7 m/s 734 mmHg 80%
    09:00 +8°C° 0 mm 7 m/s 733 mmHg 78%
    10:00 +7°C° 0.1 mm 8 m/s 734 mmHg 77%
    11:00 +7°C° 0.1 mm 8 m/s 735 mmHg 75%
    12:00 +9°C° 0.1 mm 8 m/s 735 mmHg 73%
    13:00 +7°C° 0.1 mm 8 m/s 736 mmHg 73%
    14:00 +8°C° 0.1 mm 7 m/s 737 mmHg 72%
    15:00 +8°C° 0.1 mm 7 m/s 738 mmHg 71%
    16:00 +8°C° 0 mm 7 m/s 738 mmHg 72%
    17:00 +6°C° 0 mm 7 m/s 739 mmHg 73%
    18:00 +7°C° 0 mm 6 m/s 740 mmHg 73%
    19:00 +7°C° 0 mm 6 m/s 740 mmHg 74%
    20:00 +5°C° 0 mm 6 m/s 741 mmHg 75%
    21:00 +5°C° 0 mm 5 m/s 741 mmHg 76%
    22:00 +5°C° 0 mm 5 m/s 742 mmHg 76%
    23:00 +5°C° 0 mm 5 m/s 742 mmHg 77%

    Mâine, 26 Septembrie, Miercuri

    Timp Temperatura Precipitaţii Vânt Presiune Umiditate
    00:00 +5°C° 0 mm 5 m/s 743 mmHg 77%
    01:00 +5°C° 0 mm 5 m/s 744 mmHg 79%
    02:00 +3°C° 0 mm 5 m/s 744 mmHg 81%
    03:00 +4°C° 0 mm 4 m/s 745 mmHg 83%
    04:00 +4°C° 0 mm 4 m/s 745 mmHg 84%
    05:00 +3°C° 0 mm 4 m/s 746 mmHg 86%
    06:00 +3°C° 0 mm 4 m/s 746 mmHg 87%
    07:00 +4°C° 0 mm 4 m/s 747 mmHg 82%
    08:00 +3°C° 0 mm 5 m/s 748 mmHg 78%
    09:00 +5°C° 0 mm 5 m/s 748 mmHg 74%
    10:00 +6°C° 0 mm 5 m/s 749 mmHg 68%
    11:00 +7°C° 0 mm 5 m/s 749 mmHg 62%
    12:00 +8°C° 0 mm 5 m/s 749 mmHg 56%
    13:00 +8°C° 0 mm 5 m/s 749 mmHg 54%
    14:00 +9°C° 0 mm 5 m/s 749 mmHg 52%
    15:00 +9°C° 0 mm 5 m/s 749 mmHg 50%
    16:00 +8°C° 0 mm 4 m/s 749 mmHg 54%
    17:00 +7°C° 0 mm 4 m/s 749 mmHg 58%
    18:00 +7°C° 0 mm 3 m/s 749 mmHg 61%
    19:00 +7°C° 0 mm 3 m/s 749 mmHg 63%
    20:00 +5°C° 0 mm 4 m/s 749 mmHg 64%
    21:00 +5°C° 0 mm 4 m/s 748 mmHg 66%
    22:00 +5°C° 0 mm 5 m/s 748 mmHg 67%
    23:00 +5°C° 0 mm 5 m/s 747 mmHg 68%

    Poimâine, 27 Septembrie, Joi

    Timp Temperatura Precipitaţii Vânt Presiune Umiditate
    00:00 +4°C° 0 mm 6 m/s 747 mmHg 68%
    01:00 +5°C° 0 mm 7 m/s 746 mmHg 66%
    02:00 +5°C° 0 mm 7 m/s 745 mmHg 64%
    03:00 +5°C° 0 mm 8 m/s 744 mmHg 61%
    04:00 +5°C° 0.5 mm 9 m/s 743 mmHg 65%
    05:00 +5°C° 0.5 mm 10 m/s 742 mmHg 68%
    06:00 +3°C° 0.5 mm 10 m/s 741 mmHg 72%
    07:00 +3°C° 0.9 mm 11 m/s 740 mmHg 75%
    08:00 +3°C° 0.9 mm 11 m/s 739 mmHg 78%
    09:00 +4°C° 0.9 mm 11 m/s 738 mmHg 81%
    10:00 +4°C° 0.5 mm 11 m/s 738 mmHg 82%
    11:00 +6°C° 0.5 mm 10 m/s 737 mmHg 83%
    12:00 +6°C° 0.5 mm 10 m/s 737 mmHg 84%
    13:00 +7°C° 0.3 mm 9 m/s 737 mmHg 84%
    14:00 +7°C° 0.3 mm 9 m/s 737 mmHg 83%
    15:00 +8°C° 0.3 mm 9 m/s 737 mmHg 83%
    16:00 +9°C° 0.2 mm 8 m/s 737 mmHg 81%
    17:00 +8°C° 0.2 mm 7 m/s 737 mmHg 80%
    18:00 +8°C° 0.2 mm 6 m/s 738 mmHg 78%
    19:00 +8°C° 0 mm 6 m/s 738 mmHg 79%
    20:00 +7°C° 0 mm 5 m/s 739 mmHg 79%
    21:00 +6°C° 0 mm 5 m/s 739 mmHg 79%
    22:00 +6°C° 0 mm 5 m/s 740 mmHg 80%
    23:00 +6°C° 0 mm 5 m/s 740 mmHg 81%

    28 Septembrie, Vineri

    Timp Temperatura Precipitaţii Vânt Presiune Umiditate
    00:00 +6°C° 0 mm 5 m/s 740 mmHg 82%
    01:00 +5°C° 0 mm 5 m/s 741 mmHg 83%
    02:00 +5°C° 0 mm 5 m/s 741 mmHg 85%
    03:00 +5°C° 0 mm 5 m/s 741 mmHg 86%
    04:00 +5°C° 0 mm 5 m/s 741 mmHg 88%
    05:00 +3°C° 0 mm 5 m/s 741 mmHg 90%
    06:00 +4°C° 0 mm 4 m/s 741 mmHg 91%
    07:00 +5°C° 0 mm 5 m/s 741 mmHg 86%
    08:00 +5°C° 0 mm 6 m/s 741 mmHg 80%
    09:00 +7°C° 0 mm 6 m/s 741 mmHg 75%
    10:00 +9°C° 0 mm 7 m/s 740 mmHg 70%
    11:00 +10°C° 0 mm 9 m/s 739 mmHg 65%
    12:00 +12°C° 0 mm 10 m/s 739 mmHg 60%
    13:00 +12°C° 0 mm 10 m/s 738 mmHg 63%
    14:00 +13°C° 0 mm 10 m/s 737 mmHg 66%
    15:00 +13°C° 0 mm 10 m/s 736 mmHg 69%
    16:00 +13°C° 0.2 mm 10 m/s 736 mmHg 72%
    17:00 +13°C° 0.2 mm 10 m/s 735 mmHg 75%
    18:00 +13°C° 0.2 mm 10 m/s 735 mmHg 78%
    19:00 +13°C° 0.6 mm 9 m/s 735 mmHg 79%
    20:00 +12°C° 0.6 mm 9 m/s 736 mmHg 79%
    21:00 +12°C° 0.6 mm 9 m/s 736 mmHg 80%
    22:00 +10°C° 0.1 mm 8 m/s 737 mmHg 80%
    23:00 +8°C° 0.1 mm 7 m/s 738 mmHg 80%

    29 Septembrie, Sâmbătă

    Timp Temperatura Precipitaţii Vânt Presiune Umiditate
    00:00 +5°C° 0.1 mm 6 m/s 740 mmHg 80%
    01:00 +5°C° 0 mm 5 m/s 740 mmHg 82%
    02:00 +4°C° 0 mm 4 m/s 741 mmHg 84%
    03:00 +3°C° 0 mm 3 m/s 742 mmHg 87%
    04:00 +3°C° 0 mm 3 m/s 743 mmHg 88%
    05:00 +3°C° 0 mm 2 m/s 744 mmHg 89%
    06:00 +3°C° 0 mm 2 m/s 744 mmHg 91%
    07:00 +4°C° 0 mm 2 m/s 745 mmHg 84%
    08:00 +5°C° 0 mm 2 m/s 745 mmHg 78%
    09:00 +6°C° 0 mm 2 m/s 746 mmHg 72%
    10:00 +7°C° 0 mm 2 m/s 746 mmHg 65%
    11:00 +8°C° 0 mm 2 m/s 746 mmHg 58%
    12:00 +9°C° 0 mm 2 m/s 747 mmHg 51%
    13:00 +9°C° 0 mm 2 m/s 747 mmHg 51%
    14:00 +9°C° 0 mm 3 m/s 747 mmHg 51%
    15:00 +10°C° 0 mm 3 m/s 747 mmHg 51%
    16:00 +9°C° 0 mm 2 m/s 747 mmHg 55%
    17:00 +8°C° 0 mm 2 m/s 747 mmHg 59%
    18:00 +8°C° 0 mm 1 m/s 748 mmHg 64%
    19:00 +7°C° 0 mm 2 m/s 748 mmHg 65%
    20:00 +6°C° 0 mm 2 m/s 749 mmHg 67%
    21:00 +5°C° 0 mm 2 m/s 749 mmHg 69%
    22:00 +5°C° 0 mm 2 m/s 750 mmHg 69%
    23:00 +4°C° 0 mm 2 m/s 750 mmHg 70%

    30 Septembrie, Duminică

    Timp Temperatura Precipitaţii Vânt Presiune Umiditate
    00:00 +4°C° 0 mm 2 m/s 750 mmHg 70%
    01:00 +3°C° 0 mm 2 m/s 751 mmHg 69%
    02:00 +3°C° 0 mm 2 m/s 751 mmHg 69%
    03:00 +2°C° 0 mm 2 m/s 751 mmHg 68%
    04:00 +2°C° 0 mm 2 m/s 752 mmHg 68%
    05:00 +2°C° 0 mm 1 m/s 752 mmHg 68%
    06:00 +2°C° 0 mm 1 m/s 752 mmHg 68%
    07:00 +3°C° 0 mm 1 m/s 753 mmHg 64%
    08:00 +4°C° 0 mm 1 m/s 753 mmHg 60%
    09:00 +5°C° 0 mm 0 m/s 753 mmHg 56%
    10:00 +7°C° 0 mm 1 m/s 753 mmHg 53%
    11:00 +7°C° 0 mm 2 m/s 753 mmHg 50%
    12:00 +8°C° 0 mm 2 m/s 753 mmHg 46%
    13:00 +9°C° 0 mm 2 m/s 753 mmHg 46%
    14:00 +9°C° 0 mm 3 m/s 753 mmHg 46%
    15:00 +9°C° 0 mm 3 m/s 752 mmHg 46%
    16:00 +8°C° 0 mm 3 m/s 752 mmHg 50%
    17:00 +8°C° 0 mm 2 m/s 752 mmHg 55%
    18:00 +7°C° 0 mm 2 m/s 752 mmHg 60%
    19:00 +6°C° 0 mm 2 m/s 752 mmHg 62%
    20:00 +5°C° 0 mm 2 m/s 752 mmHg 63%
    21:00 +5°C° 0 mm 2 m/s 752 mmHg 65%
    22:00 +5°C° 0 mm 2 m/s 752 mmHg 66%
    23:00 +4°C° 0 mm 2 m/s 752 mmHg 66%
    Arată mai mult